This is the latest recevied weather packets stored in our database for station/object KC3UTO. If no packets are shown the sender has not sent any weather packets the latest 10 day(s).
| Time | Temp. | Humidity | Pressure | Rain* | Wind** | Luminosity | Snow |
|---|---|---|---|---|---|---|---|
| 1777739852 | 14.44° C | 39% | 1012 hPa | 0 mm | - | 211 W/m² | - |
| 1777739549 | 13.89° C | 37% | 1012.1 hPa | 0 mm | - | 221 W/m² | - |
| 1777739246 | 13.89° C | 40% | 1012.4 hPa | 0 mm | - | 295 W/m² | - |
| 1777738942 | 14.44° C | 40% | 1012.5 hPa | 0 mm | - | 377 W/m² | - |
| 1777738640 | 13.89° C | 42% | 1012.3 hPa | 0 mm | - | 1028 W/m² | - |
| 1777738336 | 13.89° C | 40% | 1012.2 hPa | 0 mm | - | 476 W/m² | - |
| 1777738034 | 12.78° C | 45% | 1012.5 hPa | 0 mm | - | 589 W/m² | - |
| 1777737733 | 13.33° C | 44% | 1012.4 hPa | 0 mm | - | 337 W/m² | - |
| 1777737431 | 13.33° C | 44% | 1012.2 hPa | 0 mm | - | 675 W/m² | - |
| 1777737128 | 13.89° C | 43% | 1012.2 hPa | 0 mm | - | 770 W/m² | - |
| 1777736824 | 13.33° C | 44% | 1012.3 hPa | 0 mm | - | 791 W/m² | - |
| 1777736200 | 13.33° C | 44% | 1012.5 hPa | 0 mm | - | 287 W/m² | - |
| 1777735897 | 13.33° C | 47% | 1012.6 hPa | 0 mm | - | 327 W/m² | - |
| 1777735595 | 12.78° C | 49% | 1012.6 hPa | 0 mm | - | 599 W/m² | - |
| 1777735292 | 12.78° C | 46% | 1012.4 hPa | 0 mm | - | 341 W/m² | - |
| 1777734990 | 13.33° C | 48% | 1012.6 hPa | 0 mm | - | 613 W/m² | - |
| 1777734686 | 12.78° C | 48% | 1012.4 hPa | 0 mm | - | 405 W/m² | - |
| 1777734384 | 12.78° C | 46% | 1012.5 hPa | 0 mm | - | 801 W/m² | - |
| 1777734080 | 12.22° C | 49% | 1012.4 hPa | 0 mm | - | 661 W/m² | - |
| 1777733777 | 12.22° C | 47% | 1012.4 hPa | 0 mm | - | 677 W/m² | - |
| 1777733474 | 12.22° C | 49% | 1012.4 hPa | 0 mm | - | 324 W/m² | - |
| 1777733169 | 12.22° C | 46% | 1012.4 hPa | 0 mm | - | 433 W/m² | - |
| 1777732866 | 12.78° C | 47% | 1012.3 hPa | 0 mm | - | 348 W/m² | - |
| 1777732563 | 12.22° C | 52% | 1012.4 hPa | 0 mm | - | 761 W/m² | - |
| 1777732261 | 12.22° C | 50% | 1012.2 hPa | 0 mm | - | 556 W/m² | - |
* Rain latest hour (hover to see other rain measurements)
** Current wind speed in m/s (hover to see current wind gust speed)